Location: Losili
(4.4086°N, 32.7049°E)
Time: 20:47:06
(UTC+00:00)

Ariane H10-3 - Pass Details

Date: 18 September 2019
Orbit: 313 x 31424 km, 6.9° (Epoch: 17 October)

Event Time Altitude Azimuth Distance (km) Brightness Sun altitude
Rises 16:06:55 0° 255° (WSW) 5,695 9.2 -5.7°
Reaches altitude 10° 16:12:57 10° 244° (WSW) 2,774 7.0 -7.2°
Maximum altitude 16:17:12 24° 188° (S) 1,019 3.8 -8.3°
Drops below altitude 10° 16:19:16 10° 127° (SE) 1,296 3.7 -8.8°
Enters shadow 16:19:24 - 125° (SE) 1,343 3.8 -8.8°
